{"data":{"norad_id":55835,"epoch":"2026-05-25T03:37:29.335008Z","epoch_age_seconds":65065,"freshness":"FRESH","line1":"1 55835U 23029AR  26145.15103397  .00000047  00000+0  86121-4 0  9991","line2":"2 55835  87.9150 309.5703 0001555  87.3891 272.7420 13.19726460155809","mean_motion":13.1972646,"eccentricity":0.0001555,"inclination_deg":87.915,"raan_deg":309.5703,"arg_perigee_deg":87.3891,"mean_anomaly_deg":272.742,"bstar":8.6121e-5,"rev_number":15580,"period_min":109.11352038816,"perigee_km":1184.5887866571,"apogee_km":1186.9411601708,"semimajor_km":7563.9019734139,"source":"CELESTRAK","updated_at":"2026-05-25T13:38:22.699137Z"}}